Other Public Products
Issued by NWS Charleston, SC

Current Version | Previous Version | Text Only | Print | Product List | Glossary Off
Versions: 1 2 3 4 5 6 7 8 9 10 11 12 13 14 15 16 17 18 19 20 21 22 23 24 25 26 27 28 29 30 31 32 33 34 35 36 37 38 39 40 41 42 43 44 45 46 47 48 49 50

397
FPUS82 KCHS 270626
OPUCHS

TEST...KCHS/KSAV Gateway Observations...TEST
National Weather Service Charleston SC
100 AM EST MON FEB 27 2017

NOTE: "fair" indicates few or no clouds below 12,000 feet with no
significant weather and/or obstructions to visibility.

SCZ050-WAZ558-NCZ071-TXZ119-213-PAZ071-DCZ001-FLZ074-172-MI076-
NYZ176-178-MAZ016-IL014-TNZ027-NJZ106-GAZ044-MD014-270700-
...Gateway Observations for Charleston International...

CITY           SKY/WX    TMP DP  RH WIND       PRES   REMARKS
Chas Airport   CLEAR     44  39  82 NE3       30.32S
6HR MIN TEMP:  43; 6HR MAX TEMP:  54;

Seattle        CLOUDY    39  32  76 N6        29.75R WCI  35
6HR MIN TEMP:  39; 6HR MAX TEMP:  40; 6HR PCP:  0.01;

Charlotte      CLEAR     44  19  36 SE6       30.29R
6HR MIN TEMP:  44; 6HR MAX TEMP:  54;

Dallas DFW     CLOUDY    60  56  86 E3        29.89F
6HR MIN TEMP:  59; 6HR MAX TEMP:  63; 6HR PCP:  0.31;

Dallas Love    CLOUDY    60  54  80 E3        29.92S
6HR MIN TEMP:  60; 6HR MAX TEMP:  62;

Philladelphia  CLEAR     33  19  56 CALM      30.32R
6HR MIN TEMP:  33; 6HR MAX TEMP:  41;

Wash National  PTCLDY    39  26  59 S8        30.33S WCI  33
6HR MIN TEMP:  37; 6HR MAX TEMP:  45;

Baltimore      PTCLDY    30  23  75 CALM      30.32R
6HR MIN TEMP:  27; 6HR MAX TEMP:  40;

Miami          PTCLDY    75  67  76 NE10      30.15S
6HR MIN TEMP:  75; 6HR MAX TEMP:  76;

Detroit        PTCLDY    37  21  52 SW16      30.10R WCI  28
6HR MIN TEMP:  37; 6HR MAX TEMP:  40;

Newark         CLEAR     33  18  53 S3        30.29R
6HR MIN TEMP:  31; 6HR MAX TEMP:  39;

Laguardia      CLEAR     39  15  37 W8        30.29R WCI  33
6HR MIN TEMP:  39; 6HR MAX TEMP:  42;

J F K          CLEAR     36  19  50 W8        30.31R WCI  30
6HR MIN TEMP:  36; 6HR MAX TEMP:  40;

Boston Logan   PTCLDY    32  18  56 SW10      30.22R WCI  24
6HR MIN TEMP:  32; 6HR MAX TEMP:  36;

Ft. Lauderdale PTCLDY    74  67  78 NE13      30.15S
6HR MIN TEMP:  74; 6HR MAX TEMP:  76;

Chicago O`Hare PTCLDY    38  25  59 SW7       30.05S WCI  33
6HR MIN TEMP:  38; 6HR MAX TEMP:  47; 6HR PCP: TRACE;

Chicago Midway PTCLDY    38  24  57 SW8       30.07S WCI  32
6HR MIN TEMP:  38; 6HR MAX TEMP:  46;

Houston Bush   CLOUDY    68  65  90 S10       29.94F
6HR MIN TEMP:  66; 6HR MAX TEMP:  69; 6HR PCP:  0.01;

Houston Hobby  MOCLDY    68  66  93 SE12      29.93F
6HR MIN TEMP:  68; 6HR MAX TEMP:  70; 6HR PCP: TRACE;

Nashville      CLOUDY    49  28  44 VRB6      30.17S
6HR MIN TEMP:  47; 6HR MAX TEMP:  52;

Atlanta        PTCLDY    49  24  37 SE6       30.21F
6HR MIN TEMP:  49; 6HR MAX TEMP:  59;


$$

GAZ044-118-TXZ119-213-NCZ071-DCZ001-MDZ014-506-PAZ021-071-NJZ106-
NYZ176-178-MAZ106-OHZ011-021-055-MIZ076-KYZ091-ILZ014-INZ047-
MNZ060-ONZ431-270700-
...Gateway Observations for Savannah International...

CITY           SKY/WX    TMP DP  RH WIND       PRES   REMARKS
Savannah Arpt  CLEAR     45  40  82 CALM      30.31S
6HR MIN TEMP:  45; 6HR MAX TEMP:  57;

Atlanta        PTCLDY    49  24  37 SE6       30.21F
6HR MIN TEMP:  49; 6HR MAX TEMP:  59;

Charlotte      CLEAR     44  19  36 SE6       30.29R
6HR MIN TEMP:  44; 6HR MAX TEMP:  54;

Dallas DFW     CLOUDY    60  56  86 E3        29.89F
6HR MIN TEMP:  59; 6HR MAX TEMP:  63; 6HR PCP:  0.31;

Houston Bush   CLOUDY    68  65  90 S10       29.94F
6HR MIN TEMP:  66; 6HR MAX TEMP:  69; 6HR PCP:  0.01;

Wash National  PTCLDY    39  26  59 S8        30.33S WCI  33
6HR MIN TEMP:  37; 6HR MAX TEMP:  45;

Wash Dulles    PTCLDY    27  20  75 CALM      30.31R
6HR MIN TEMP:  25; 6HR MAX TEMP:  43;

Baltimore      PTCLDY    30  23  75 CALM      30.32R
6HR MIN TEMP:  27; 6HR MAX TEMP:  40;

Philadelphia   CLEAR     33  19  56 CALM      30.32R
6HR MIN TEMP:  33; 6HR MAX TEMP:  41;

Newark         CLEAR     33  18  53 S3        30.29R
6HR MIN TEMP:  31; 6HR MAX TEMP:  39;

Laguardia      CLEAR     39  15  37 W8        30.29R WCI  33
6HR MIN TEMP:  39; 6HR MAX TEMP:  42;

J F K          CLEAR     36  19  50 W8        30.31R WCI  30
6HR MIN TEMP:  36; 6HR MAX TEMP:  40;

Boston         PTCLDY    32  18  56 SW10      30.22R WCI  24
6HR MIN TEMP:  32; 6HR MAX TEMP:  36;

Pittsburg      PTCLDY    32  15  49 S6        30.20R WCI  26
6HR MIN TEMP:  32; 6HR MAX TEMP:  37;

Akron          CLEAR     33  16  49 S10       30.17R WCI  25
6HR MIN TEMP:  32; 6HR MAX TEMP:  36;

Cleveland      PTCLDY    37  18  46 S10       30.18R WCI  30
6HR MIN TEMP:  36; 6HR MAX TEMP:  40;

Cincinnati     CLOUDY    40  22  48 S6        30.17S WCI  36
6HR MIN TEMP:  38; 6HR MAX TEMP:  42;

Columbus       CLOUDY    38  22  52 S8        30.20S WCI  32
Detroit        PTCLDY    37  21  52 SW16      30.10R WCI  28
6HR MIN TEMP:  37; 6HR MAX TEMP:  40;

Chicago O`Hare PTCLDY    38  25  59 SW7       30.05S WCI  33
6HR MIN TEMP:  38; 6HR MAX TEMP:  47; 6HR PCP: TRACE;

Minneapolis    CLOUDY    30  16  56 S6        29.96R WCI  24
6HR MIN TEMP:  29; 6HR MAX TEMP:  32;

Indianapolis   CLOUDY    43  18  36 SW12      30.15R
6HR MIN TEMP:  37; 6HR MAX TEMP:  43;

Toronto Canada PTCLDY    37  21  52 SW12G18   30.01S WCI  30

$$




USA.gov is the U.S. government's official web portal to all federal, state and local government web resources and services.